{"data":{"norad_id":45405,"intl_designator":"2020-019AX","name":"STARLINK-1263","alt_names":[],"object_type":"PAYLOAD","status":"ACTIVE","operator":null,"country":"US","launch_date":"2020-03-18","launch_site_code":"AFETR","launch_vehicle":null,"mission":null,"orbit_class":"UNKNOWN","rcs_meters":null,"size_class":null,"mass_kg":null,"dimensions":null,"purposes":["comms"],"wikipedia_slug":null,"has_3d_model":false,"image_url":null,"decayed_at":null,"tle_current":{"epoch":"2026-09-19T17:26:32.744832Z","epoch_age_seconds":85058,"freshness":"FRESH","line1":"1 45405U 20019AX  26262.72676788  .00039435  00000+0  85207-3 0  9997","line2":"2 45405  53.1513 300.0224 0003696  46.2089 313.9223 15.44147773359791","mean_motion":15.44147773,"eccentricity":0.0003696,"inclination_deg":53.1513,"raan_deg":300.0224,"arg_perigee_deg":46.2089,"mean_anomaly_deg":313.9223,"bstar":0.00085207,"rev_number":35979,"period_min":93.255323433349,"perigee_km":431.36560142111,"apogee_km":436.40104684471,"semimajor_km":6812.0203241329,"source":"CELESTRAK","updated_at":"2026-09-20T09:00:38.234083Z"}}}